Wind_Speed
1 4 3 4 3 4 4 1 0 3 4 6 10 10 10 12 14 15 15 15 16 16 18 18 17 14 4 10 13 15 16 16 16 16 15 14 14 13 13 13 13 12 11 11
4 2 4 3 4 4 3 2 3 5 2 3 8 10 10 12 12 13 15 16 17 17 18 22 21 18 13 1 8 11 12 13 15 13 13 10 10 11 11 11 12 13 13 12
2 5 1 3 4 4 2 3 4 1 5 4 9 6 5 8 11 12 14 15 17 18 19 19 24 22 18 13 3 5 7 9 11 12 10 9 6 5 5 9 10 12 13 13
2 2 2 4 3 3 2 1 2 5 4 2 7 2 5 7 10 13 14 15 16 18 18 22 25 26 24 20 14 9 4 4 6 8 9 10 9 9 6 5 6 7 10 12
4 1 2 2 1 2 3 2 2 2 5 4 8 5 8 4 7 10 12 14 15 16 17 19 25 27 26 25 21 17 14 10 5 2 4 6 8 8 8 7 7 7 8 10
1 1 2 2 3 2 8 3 2 2 3 5 4 8 7 4 5 7 9 12 13 14 16 21 23 25 28 27 26 25 22 19 13 8 4 2 5 6 7 7 8 8 8 9
1 2 1 1 3 4 4 4 3 4 4 2 2 6 8 7 7 8 9 10 11 12 14 15 21 23 26 26 26 24 25 25 22 21 17 12 6 4 5 7 7 8 9 9
2 4 2 4 3 2 1 3 4 4 2 3 4 4 5 8 8 9 8 9 10 11 12 14 18 20 22 23 23 23 24 23 21 21 20 18 17 14 12 10 7 6 8 9
4 2 2 4 3 3 3 3 3 3 0 4 5 4 5 9 9 9 8 8 10 10 11 13 17 18 19 20 21 21 21 22 21 19 18 18 18 17 15 14 12 11 10 10
3 3 2 1 1 5 3 2 3 3 3 4 4 4 2 14 13 10 8 7 8 8 10 12 15 17 17 18 17 19 19 19 19 18 17 16 16 16 14 14 15 13 13 13
4 2 3 2 5 5 0 2 0 3 3 4 5 3 5 13 13 12 9 7 6 7 9 10 13 14 15 17 18 19 19 19 19 18 17 16 15 15 14 15 15 14 13 14
4 3 4 2 4 1 2 2 3 4 1 1 3 1 2 3 10 10 9 6 6 7 7 9 11 13 15 16 17 18 18 18 18 17 16 16 15 15 15 15 15 15 14 14
4 1 3 3 4 3 3 4 3 2 2 8 6 2 2 7 9 8 8 6 5 5 6 8 10 12 14 15 16 17 17 17 17 16 15 14 15 15 15 15 15 15 14 14
2 2 5 5 4 4 2 2 4 4 5 8 8 5 6 8 9 9 7 4 4 5 7 8 10 12 14 15 16 17 17 17 17 16 15 14 15 15 15 15 15 15 14 14
2 2 3 5 5 4 7 9 7 8 9 7 7 6 3 7 7 7 5 4 4 6 8 9 10 14 16 17 17 17 17 18 18 17 15 14 15 15 15 15 15 15 14 14
3 1 2 3 1 4 8 7 7 6 6 10 8 7 2 4 6 6 4 3 4 5 7 8 11 14 16 18 20 19 19 19 18 16 16 16 16 16 15 16 17 17 17 16
2 1 1 2 4 7 8 3 3 3 1 3 4 5 3 4 4 2 4 1 2 4 6 8 11 14 15 17 18 19 20 19 17 16 16 17 18 18 18 18 17 18 18 18
0 1 1 3 5 4 6 2 2 5 4 3 4 5 4 1 2 1 2 2 2 4 7 9 12 13 14 15 16 18 18 18 18 17 18 18 19 19 19 18 18 18 17 18
2 2 2 3 4 4 6 5 4 4 4 3 1 3 5 4 7 7 4 1 3 5 6 9 11 14 14 14 16 18 18 18 18 19 20 21 21 21 21 20 18 18 18 17
3 1 3 2 3 4 5 5 0 3 7 5 2 6 8 7 8 7 6 2 2 5 8 11 12 12 12 14 15 16 17 17 18 20 22 21 20 19 19 18 18 17 16 16
2 3 6 6 5 4 5 3 5 5 3 5 9 9 12 13 11 2 2 1 4 6 8 9 10 10 11 11 15 14 15 16 19 19 18 17 16 17 15 15 15 15 14 13
3 3 4 3 5 6 7 3 5 8 13 11 10 14 15 14 8 5 2 3 5 6 7 7 9 9 9 11 11 13 15 17 18 17 15 15 15 14 13 13 13 13 14 13
4 6 2 4 2 4 6 10 10 8 12 14 14 11 9 8 6 2 3 4 5 5 6 6 7 7 8 9 10 12 13 15 15 14 14 13 12 12 12 12 13 13 15 15
5 4 4 4 7 13 10 13 8 6 7 9 9 9 5 6 4 4 4 4 5 4 5 5 6 6 8 9 9 10 12 12 12 12 12 12 12 12 12 12 13 13 16 15
6 3 5 10 14 12 14 6 5 8 8 9 9 7 6 6 6 5 5 5 4 4 4 5 6 6 8 9 8 10 11 11 10 10 10 11 11 11 10 10 12 13 14 15
6 6 5 6 6 8 13 10 9 12 12 13 10 9 7 7 7 6 6 5 5 5 4 6 7 7 7 8 8 9 9 10 9 8 9 10 9 10 10 10 8 9 12 12
Wind_Direction
38 226 139 91 63 75 106 104 322 86 81 80 93 81 48 36 37 33 29 26 21 17 14 15 13 10 12 208 212 211 207 207 201 203 204 211 217 223 226 228 228 227 229 228
208 144 111 98 148 157 174 195 151 120 96 151 133 95 70 49 45 37 29 28 23 18 20 20 23 27 30 63 209 212 209 206 204 206 208 216 220 227 229 234 233 231 231 231
324 93 104 240 178 199 199 256 178 154 128 108 157 134 115 70 58 49 43 35 32 27 23 22 25 31 36 44 66 195 204 205 207 209 212 218 219 233 234 236 237 235 232 234
84 99 182 165 195 238 230 157 161 156 211 241 215 148 156 99 64 45 38 36 34 30 32 32 31 35 37 43 55 71 109 178 201 209 220 229 241 250 251 244 249 241 235 238
90 139 169 218 38 222 73 156 169 212 238 246 189 251 116 193 77 51 42 37 35 35 36 36 37 40 42 44 51 62 71 72 71 199 242 254 255 265 268 270 273 260 252 245
49 328 294 32 77 34 138 145 118 154 209 235 145 232 149 155 110 89 64 50 44 40 39 41 42 43 44 46 51 55 61 60 59 60 38 333 298 294 291 289 286 277 267 261
63 79 68 333 195 132 205 224 215 206 200 16 128 209 60 119 107 101 85 63 53 49 46 41 40 42 42 43 46 49 52 54 55 56 53 41 21 351 323 314 301 294 284 274
309 175 357 2 354 344 255 294 302 291 274 95 141 218 121 125 117 112 97 84 69 57 50 45 44 46 45 45 45 46 47 47 46 49 48 47 47 47 41 27 4 331 305 292
332 144 11 34 339 316 127 239 6 299 332 260 122 120 147 158 146 137 112 89 69 60 51 45 44 43 43 44 44 44 45 44 43 42 42 42 40 39 34 28 25 19 12 354
39 280 63 21 244 73 326 76 242 194 269 261 175 217 116 181 170 153 137 100 80 65 54 49 45 40 39 40 41 43 43 42 38 37 36 34 31 30 28 24 21 16 11 9
341 275 116 230 24 11 322 212 17 301 293 291 294 125 352 179 174 167 141 109 77 58 47 46 44 43 41 38 36 34 32 31 29 27 25 25 25 24 21 19 14 10 6 6
18 316 276 357 356 340 330 38 354 276 175 289 308 292 81 199 167 158 138 113 79 55 46 42 38 37 33 31 29 28 25 24 18 14 14 15 15 14 14 11 7 4 2 1
1 191 273 185 165 159 63 53 59 24 282 257 277 69 101 138 152 153 147 119 81 57 45 40 33 30 26 22 18 16 15 14 12 8 6 6 7 5 2 0 358 357 356 355
237 279 278 300 21 342 269 316 331 299 264 289 261 303 173 172 166 158 143 111 74 54 40 33 26 21 16 10 5 2 360 358 354 355 357 357 357 355 353 351 350 349 348 347
40 265 303 294 299 291 277 286 286 267 280 267 341 328 178 174 163 143 121 87 57 37 26 20 12 5 360 357 353 351 349 347 346 344 343 344 340 339 337 337 337 337 338 338
358 174 331 280 348 303 279 278 270 260 264 265 280 261 110 146 143 158 123 58 34 26 15 3 360 355 352 347 343 341 341 341 339 336 335 335 335 335 334 331 327 324 324 322
357 281 227 230 316 303 247 213 185 122 68 291 275 62 158 138 172 222 227 325 3 5 357 355 352 345 342 340 337 336 334 333 335 334 333 333 334 332 331 328 326 324 321 319
154 210 276 305 302 237 86 101 112 108 74 68 107 103 90 111 327 294 142 289 333 354 344 342 337 336 336 334 333 331 333 333 333 333 332 331 330 329 328 327 326 324 323 321
209 247 226 280 263 320 177 177 192 218 138 75 15 303 295 291 293 246 167 108 11 348 339 331 331 330 333 338 337 334 334 333 333 334 331 330 326 323 324 325 326 325 323 321
158 29 273 214 266 273 100 138 231 200 233 138 3 308 286 273 266 282 148 164 325 337 339 335 334 333 337 340 340 335 335 335 336 333 329 327 326 325 323 323 324 322 323 321
191 217 239 246 262 270 124 66 147 236 78 285 304 298 292 274 266 3 144 309 352 343 335 332 331 332 335 338 336 336 336 339 335 331 330 330 330 330 332 331 331 331 333 335
237 238 215 211 234 250 163 159 227 332 307 296 278 303 290 275 253 229 262 321 330 331 333 333 330 330 335 338 340 340 339 336 336 334 337 340 341 346 346 347 354 0 5 358
249 230 290 237 333 143 187 291 294 299 288 295 293 279 274 270 242 244 284 296 314 319 321 326 326 322 328 336 339 337 339 338 341 347 350 355 2 5 8 14 15 20 19 21
227 211 245 273 238 263 284 286 274 282 270 293 284 285 259 260 253 272 280 299 301 306 309 312 311 314 326 332 330 335 340 338 339 351 357 3 13 19 25 32 31 32 26 24
288 172 244 256 271 278 264 275 255 300 281 292 276 254 255 257 260 276 274 272 272 275 284 298 304 305 309 318 317 331 338 340 336 349 353 2 10 13 22 31 33 32 32 27
197 227 222 262 284 282 282 295 293 291 283 284 272 241 245 242 259 252 262 263 258 270 272 290 293 295 295 307 307 325 335 343 341 344 349 3 6 14 20 20 24 34 29 27
Height
811 807 809 812 813 813 815 818 821 822 825 825 832 837 839 837 835 833 830 828 826 823 821 817 813 809 806 808 811 814 818 821 825 827 830 832 833 835 836 836 838 839 840 840
812 812 814 816 817 816 817 818 819 824 825 820 831 840 842 841 842 841 838 834 833 828 823 820 815 811 809 808 810 813 817 820 823 826 828 830 831 832 833 834 835 836 837 838
813 816 819 820 820 819 818 817 820 818 825 823 826 836 837 842 842 842 841 840 838 834 830 825 820 816 813 811 811 813 816 819 821 824 826 828 829 829 831 831 832 832 833 834
815 817 818 818 818 817 821 821 822 825 824 821 825 821 836 839 843 845 845 844 842 839 835 832 827 822 818 816 814 815 816 818 821 823 825 826 826 827 828 829 830 830 830 831
821 819 819 818 819 818 821 822 823 824 822 825 828 826 828 838 844 849 850 851 849 845 842 837 833 830 827 823 820 818 818 820 821 823 824 825 825 826 826 827 827 828 828 827
819 820 819 817 821 822 825 825 828 828 825 828 818 820 828 833 845 852 854 854 853 851 848 844 841 837 833 831 827 825 823 822 823 824 824 824 825 825 825 825 825 825 825 825
821 822 820 820 821 823 823 822 818 824 826 813 829 828 837 849 851 854 856 857 857 855 852 850 846 843 840 837 835 833 830 828 827 826 825 825 825 824 824 824 823 823 823 822
827 829 824 823 822 820 822 821 817 826 815 815 834 823 843 853 857 860 860 860 859 858 858 856 854 850 847 844 842 839 837 835 833 831 830 829 828 827 826 824 823 822 821 820
831 828 827 828 825 826 825 824 827 826 833 826 819 847 854 855 858 860 862 862 862 861 861 860 859 856 853 850 847 845 842 840 838 837 835 833 831 830 829 827 825 823 821 819
845 833 831 829 828 828 825 827 826 823 829 824 823 827 816 853 856 861 862 863 865 865 864 863 862 861 859 856 854 851 848 845 843 841 839 837 836 834 831 829 827 825 822 819
848 843 830 831 834 835 828 827 831 830 828 819 816 813 841 840 849 855 861 865 867 868 867 866 865 864 862 860 858 855 852 849 847 844 842 840 838 836 834 832 829 826 824 820
854 847 837 837 843 843 841 841 838 832 827 833 832 824 852 850 850 857 863 867 869 870 870 869 867 866 864 863 861 859 856 853 851 848 846 843 841 838 836 833 831 828 825 822
859 848 839 839 846 842 845 851 848 848 847 832 831 824 854 855 858 861 865 868 870 871 870 869 868 867 866 865 863 861 859 857 854 851 848 846 843 840 838 835 832 829 826 823
865 857 848 836 851 856 850 854 856 852 846 831 831 831 857 858 859 864 868 870 871 872 872 872 870 869 868 867 865 863 860 858 855 852 849 847 844 842 839 836 833 830 827 824
864 858 865 859 860 862 859 858 857 858 848 851 842 849 853 858 862 866 870 872 872 873 873 873 872 870 869 867 866 863 861 858 855 852 849 847 844 842 839 836 833 829 826 823
872 860 869 860 864 863 862 860 861 862 860 859 858 853 863 865 866 868 870 872 873 873 874 874 874 872 870 868 866 863 860 857 854 851 848 846 843 840 838 835 831 828 825 822
874 869 864 850 863 858 851 862 863 866 868 867 857 862 866 867 867 868 869 872 874 874 875 874 874 873 871 869 866 863 860 857 853 850 847 845 842 839 836 833 829 826 823 820
878 874 870 856 858 849 866 866 866 867 871 870 869 870 869 869 869 870 871 872 873 875 875 875 874 873 871 868 865 862 858 855 852 848 846 843 840 837 834 830 827 824 821 818
882 876 869 861 857 850 868 869 868 866 873 873 873 872 870 869 869 865 871 874 876 877 877 876 874 872 869 867 864 861 857 854 850 848 845 841 838 834 831 828 825 822 819 815
885 881 872 872 867 847 858 869 870 869 863 871 872 870 869 868 867 859 869 874 875 876 875 874 873 871 868 866 863 860 857 854 851 848 844 841 837 833 829 826 823 820 817 813
877 876 876 866 866 855 868 870 871 875 866 869 869 868 868 865 861 865 870 872 874 875 874 874 872 869 868 866 863 860 857 854 852 848 844 840 837 832 829 825 822 818 815 812
870 869 869 870 871 868 867 869 871 863 865 864 865 866 865 863 863 866 869 871 872 873 873 872 870 868 866 865 863 860 858 855 851 847 843 839 836 832 829 825 822 818 815 812
877 867 863 866 857 863 864 867 867 868 867 866 865 863 861 860 862 867 869 870 870 871 871 870 869 867 866 864 863 860 858 855 851 847 843 840 836 833 829 826 823 820 817 814
871 878 874 874 860 860 862 862 866 866 865 864 863 862 862 862 864 865 867 868 869 869 869 869 867 866 865 864 862 860 857 854 850 847 843 840 837 834 831 828 825 823 820 817
867 878 868 866 862 862 860 861 863 863 863 862 862 862 862 862 862 863 864 865 866 867 867 867 866 864 864 863 861 859 856 853 849 846 843 841 838 835 832 830 828 825 824 821
870 863 863 855 855 858 856 858 860 859 858 858 857 859 860 861 862 863 863 864 864 864 864 864 864 863 862 861 859 857 855 852 849 846 843 841 838 836 833 831 828 827 825 823